Tok, AK

7:10 PM AKST on February 23, 2017 (GMT -0900)
Eagle

Weather History for PAEG - March, 2013

Change the Weather History Date:

Sunday, March 17, 2013

  Actual Average (PABN) Record (PABN)
Temperature  
Mean Temperature -4 °F -  
Max Temperature 18 °F 19 °F 39 °F (1997)
Min Temperature -26 °F 5 °F -14 °F (2006)
Degree Days  
Heating Degree Days 69    
Moisture  
Dew Point -22 °F    
Average Humidity 55    
Maximum Humidity 70    
Minimum Humidity 27    
Precipitation  
Precipitation 0.00 in - - ()
Sea Level Pressure  
Sea Level Pressure 30.27 in    
Wind  
Wind Speed 0 mph (South)    
Max Wind Speed 5 mph    
Max Gust Speed -    
Visibility 10 miles    
Events      
Averages and records for this station are not official NWS values.
T = Trace of Precipitation, MM = Missing Value Source: NWS Daily Summary

Daily Weather History Graph

Daily Weather History Graph

Search for Another Location

Airport or City:

Trip Planner

Search our weather history database for the weather conditions in past years. The results will help you decide how hot, cold, wet, or windy it might be!

Date:

Astronomy

Mar. 17, 2013 Rise Set
Actual Time 7:34 AM AKDT 7:32 PM AKDT
Civil Twilight 6:45 AM AKDT 8:21 PM AKDT
Nautical Twilight 5:46 AM AKDT 9:20 PM AKDT
Astronomical Twilight 4:40 AM AKDT 10:28 PM AKDT
Moon 8:41 AM AKDT (3/17) 2:57 AM AKDT (3/17)
Length of Visible Light 13h 35m
Length of Day
11h 58m
Waxing Crescent, 33% of the Moon is Illuminated
Mar 17
Waxing Crescent
Mar 19
First Quarter
Mar 27
Full
Apr 2
Last Quarter
Apr 10
New

Hourly Weather History & Observations

Time (AKDT) Temp. Windchill Dew Point Humidity Pressure Visibility Wind Dir Wind Speed Gust Speed Precip Events Conditions
12:53 AM -18.9 °F - -27.0 °F 66% 30.30 in 10.0 mi Calm Calm - N/A   Clear
1:53 AM -20.9 °F - -29.0 °F 66% 30.31 in 10.0 mi Calm Calm - N/A   Clear
2:53 AM -23.1 °F - -29.9 °F 70% 30.31 in 10.0 mi Calm Calm - N/A   Clear
3:53 AM -24.0 °F - -31.0 °F 70% 30.32 in 10.0 mi Calm Calm - N/A   Clear
4:53 AM -24.0 °F - -31.0 °F 70% 30.32 in 10.0 mi Calm Calm - N/A   Clear
5:53 AM -25.1 °F - -32.1 °F 70% 30.33 in 10.0 mi Calm Calm - N/A   Clear
6:53 AM -26.0 °F - -33.0 °F 69% 30.34 in 10.0 mi Calm Calm - N/A   Clear
7:53 AM -26.0 °F - -34.1 °F 66% 30.35 in 10.0 mi Calm Calm - N/A   Clear
8:53 AM -20.0 °F - -27.9 °F 67% 30.35 in 10.0 mi Calm Calm - N/A   Clear
9:53 AM -13.0 °F - -23.1 °F 61% 30.34 in 10.0 mi Calm Calm - N/A   Clear
10:53 AM -6.0 °F - -18.9 °F 54% 30.33 in 10.0 mi Calm Calm - N/A   Clear
11:53 AM 1.0 °F - -16.1 °F 45% 30.32 in 10.0 mi Calm Calm - N/A   Clear
12:53 PM 5.0 °F - -14.1 °F 41% 30.30 in 10.0 mi Calm Calm - N/A   Clear
1:53 PM 9.0 °F - -13.0 °F 36% 30.28 in 10.0 mi Calm Calm - N/A   Clear
2:53 PM 12.0 °F - -13.0 °F 32% 30.26 in 10.0 mi Calm Calm - N/A   Clear
3:53 PM 14.0 °F - -11.9 °F 31% 30.24 in 10.0 mi Calm Calm - N/A   Clear
4:53 PM 16.0 °F - -11.9 °F 28% 30.21 in 10.0 mi Calm Calm - N/A   Clear
5:53 PM 18.0 °F - -11.0 °F 27% 30.19 in 10.0 mi Calm Calm - N/A   Clear
6:53 PM 10.0 °F 1.8 °F -11.9 °F 37% 30.18 in 10.0 mi SSE 4.6 mph - N/A   Clear
7:53 PM -2.0 °F -10.1 °F -17.0 °F 49% 30.19 in 10.0 mi South 3.5 mph - N/A   Mostly Cloudy
8:53 PM -8.0 °F - -20.0 °F 56% 30.18 in 10.0 mi Calm Calm - N/A   Clear
9:53 PM -11.0 °F - -20.9 °F 62% 30.17 in 10.0 mi Calm Calm - N/A   Clear
10:53 PM -15.0 °F - -23.1 °F 67% 30.16 in 10.0 mi Calm Calm - N/A   Clear
11:53 PM -17.0 °F - -24.0 °F 70% 30.14 in 10.0 mi Calm Calm - N/A   Clear